Location: Indian Hills
(32.9760°N, 85.9450°W)
Time: 13:08:32
(UTC+00:00)

Cosmos 2263 Rocket - Pass Details

Date: 09 December 2019
Orbit: 824 x 848 km, 71.0° (Epoch: 27 January)

Event Time Altitude Azimuth Distance (km) Brightness Sun altitude
Rises 10:12:11 0° 183° (S) 3,360 5.4 -29.2°
Reaches altitude 10° 10:14:41 10° 177° (S) 2,426 4.7 -28.7°
Maximum altitude 10:19:58 46° 106° (ESE) 1,097 3.1 -27.6°
Drops below altitude 10° 10:25:15 10° 34° (NE) 2,428 4.8 -26.5°
Sets 10:27:46 0° 28° (NNE) 3,363 5.5 -26.0°
